Weather History for Keene, NH

Change the Weather History Date:

Wednesday, January 23, 2013

  Actual Average Record
Temperature  
Mean Temperature 4 °F -  
Max Temperature 10 °F 33 °F 54 °F (1967)
Min Temperature -4 °F 11 °F -25 °F (1961)
Degree Days  
Heating Degree Days 61    
Moisture  
Dew Point -11 °F    
Average Humidity 47    
Maximum Humidity 78    
Minimum Humidity 31    
Precipitation  
Precipitation 0.00 in - - ()
Sea Level Pressure  
Sea Level Pressure 30.07 in    
Wind  
Wind Speed 5 mph (West)    
Max Wind Speed 14 mph    
Max Gust Speed 22 mph    
Visibility 10 miles    
Events      
Averages and records for this station are not official NWS values.
T = Trace of Precipitation, MM = Missing Value Source: NWS Daily Summary

Daily Weather History Graph

Daily Weather History Graph

Search for Another Location

Airport:

Trip Planner

Search our weather history database for the weather conditions in past years. The results will help you decide how hot, cold, wet, or windy it might be!

Date:

Astronomy

Jan. 23, 2013 Rise Set
Actual Time 7:12 AM EST 4:50 PM EST
Civil Twilight 6:41 AM EST 5:21 PM EST
Nautical Twilight 6:06 AM EST 5:55 PM EST
Astronomical Twilight 5:33 AM EST 6:29 PM EST
Moon 1:57 PM EST (1/23) 4:22 AM EST (1/23)
Length of Visible Light 10h 39m
Length of Day
9h 38m
Waxing Gibbous, 89% of the Moon is Illuminated
Jan 23
Waxing Gibbous
Jan 26
Full
Feb 3
Last Quarter
Feb 10
New
Feb 17
First Quarter

Hourly Weather History & Observations

Time (EST) Temp. Windchill Dew Point Humidity Pressure Visibility Wind Dir Wind Speed Gust Speed Precip Events Conditions
12:15 AM 5.0 °F -2.1 °F -9.4 °F 52% 30.04 in 10.0 mi SSW 3.5 mph - N/A   Clear
12:35 AM 5.0 °F -2.1 °F -5.8 °F 61% 30.04 in 10.0 mi SSW 3.5 mph - N/A   Clear
12:55 AM 6.8 °F -0.1 °F -5.8 °F 56% 30.03 in 10.0 mi WSW 3.5 mph - N/A   Clear
1:35 AM 6.8 °F -0.1 °F -5.8 °F 56% 30.03 in 10.0 mi SSW 3.5 mph - N/A   Clear
1:55 AM 5.0 °F -2.1 °F -7.6 °F 56% 30.03 in 10.0 mi SW 3.5 mph - N/A   Clear
2:15 AM 6.8 °F -2.0 °F -4.0 °F 61% 30.04 in 10.0 mi West 4.6 mph - N/A   Clear
2:55 AM 8.6 °F 0.1 °F -7.6 °F 48% 30.04 in 10.0 mi WNW 4.6 mph - N/A   Clear
3:15 AM 6.8 °F -0.1 °F -9.4 °F 48% 30.04 in 10.0 mi NW 3.5 mph - N/A   Clear
3:35 AM 6.8 °F - -9.4 °F 48% 30.04 in 10.0 mi Calm Calm - N/A   Clear
4:15 AM 5.0 °F -4.1 °F -11.2 °F 47% 30.04 in 10.0 mi SW 4.6 mph - N/A   Clear
4:35 AM 6.8 °F -2.0 °F -11.2 °F 44% 30.04 in 10.0 mi WSW 4.6 mph - N/A   Clear
4:55 AM 6.8 °F - -13.0 °F 40% 30.05 in 10.0 mi Calm Calm - N/A   Clear
5:15 AM 5.0 °F - -14.8 °F 40% 30.06 in 10.0 mi Calm Calm - N/A   Clear
5:35 AM 5.0 °F -2.1 °F -14.8 °F 40% 30.06 in 10.0 mi SW 3.5 mph - N/A   Clear
5:55 AM 5.0 °F -2.1 °F -16.6 °F 36% 30.07 in 10.0 mi WSW 3.5 mph - N/A   Clear
6:35 AM 3.2 °F -4.2 °F -14.8 °F 43% 30.07 in 10.0 mi SW 3.5 mph - N/A   Clear
6:55 AM 3.2 °F -9.1 °F -14.8 °F 43% 30.07 in 10.0 mi SW 6.9 mph - N/A   Clear
7:15 AM 3.2 °F -7.8 °F -11.2 °F 51% 30.08 in 10.0 mi SW 5.8 mph - N/A   Clear
7:55 AM 3.2 °F -7.8 °F - N/A% 30.09 in 10.0 mi SW 5.8 mph - N/A   Clear
8:15 AM 3.2 °F -7.8 °F -11.2 °F 51% 30.10 in 10.0 mi SW 5.8 mph - N/A   Clear
8:35 AM 3.2 °F -7.8 °F -11.2 °F 51% 30.10 in 10.0 mi West 5.8 mph - N/A   Clear
8:55 AM 5.0 °F -9.1 °F -11.2 °F 47% 30.10 in 10.0 mi WNW 9.2 mph - N/A   Clear
9:15 AM 6.8 °F -5.9 °F -11.2 °F 44% 30.10 in 10.0 mi West 8.1 mph - N/A   Clear
9:35 AM 6.8 °F -3.5 °F -11.2 °F 44% 30.11 in 10.0 mi NW 5.8 mph - N/A   Clear
9:55 AM 6.8 °F -9.3 °F -11.2 °F 44% 30.11 in 10.0 mi North 12.7 mph 18.4 mph N/A   Clear
10:15 AM 6.8 °F -10.0 °F -11.2 °F 44% 30.11 in 10.0 mi NNW 13.8 mph 19.6 mph N/A   Clear
10:35 AM 6.8 °F -9.3 °F -11.2 °F 44% 30.11 in 10.0 mi NNW 12.7 mph 17.3 mph N/A   Clear
10:55 AM 8.6 °F -7.0 °F -13.0 °F 37% 30.10 in 10.0 mi WNW 12.7 mph 21.9 mph N/A   Clear
11:15 AM 8.6 °F -3.7 °F -13.0 °F 37% 30.09 in 10.0 mi NNW 8.1 mph 17.3 mph N/A   Clear
11:35 AM 8.6 °F -3.7 °F - N/A% 30.09 in 10.0 mi NW 8.1 mph - N/A   Clear
11:55 AM 8.6 °F -4.7 °F -11.2 °F 40% 30.08 in 10.0 mi NNW 9.2 mph 18.4 mph N/A   Clear
12:15 PM 8.6 °F -6.3 °F -13.0 °F 37% 30.07 in 10.0 mi WNW 11.5 mph 19.6 mph N/A   Clear
12:35 PM 8.6 °F -3.7 °F -13.0 °F 37% 30.06 in 10.0 mi WNW 8.1 mph 20.7 mph N/A   Clear
12:55 PM 8.6 °F -6.3 °F -14.8 °F 34% 30.06 in 10.0 mi NNW 11.5 mph 21.9 mph N/A   Clear
1:15 PM 10.4 °F -2.4 °F -13.0 °F 34% 30.06 in 10.0 mi NW 9.2 mph - N/A   Clear
1:35 PM 10.4 °F 0.8 °F -13.0 °F 34% 30.05 in 10.0 mi NNW 5.8 mph 16.1 mph N/A   Clear
1:55 PM 10.4 °F -4.8 °F -13.0 °F 34% 30.05 in 10.0 mi NW 12.7 mph 19.6 mph N/A   Clear
2:15 PM 10.4 °F -2.4 °F -13.0 °F 34% 30.05 in 10.0 mi NW 9.2 mph - N/A   Clear
2:35 PM 10.4 °F -4.1 °F -13.0 °F 34% 30.06 in 10.0 mi NNW 11.5 mph 18.4 mph N/A   Clear
2:55 PM 10.4 °F -0.4 °F -13.0 °F 34% 30.06 in 10.0 mi WNW 6.9 mph - N/A   Clear
3:16 PM 10.4 °F -3.3 °F -13.0 °F 34% 30.06 in 10.0 mi NW 10.4 mph - N/A   Clear
3:35 PM 10.4 °F 2.2 °F -13.0 °F 34% 30.06 in 10.0 mi NW 4.6 mph - N/A   Clear
3:55 PM 10.4 °F -2.4 °F -14.8 °F 31% 30.05 in 10.0 mi NW 9.2 mph - N/A   Clear
4:15 PM 10.4 °F -3.3 °F -14.8 °F 31% 30.05 in 10.0 mi WSW 10.4 mph - N/A   Clear
4:35 PM 10.4 °F -0.4 °F -11.2 °F 37% 30.06 in 10.0 mi West 6.9 mph - N/A   Clear
4:55 PM 8.6 °F -2.6 °F -11.2 °F 40% 30.06 in 10.0 mi WSW 6.9 mph - N/A   Clear
5:15 PM 8.6 °F -1.3 °F -9.4 °F 44% 30.07 in 10.0 mi West 5.8 mph - N/A   Clear
5:35 PM 8.6 °F -2.6 °F -9.4 °F 44% 30.07 in 10.0 mi West 6.9 mph - N/A   Clear
5:55 PM 8.6 °F 2.0 °F -9.4 °F 44% 30.07 in 10.0 mi WSW 3.5 mph - N/A   Clear
6:15 PM 8.6 °F 0.1 °F -9.4 °F 44% 30.08 in 10.0 mi West 4.6 mph - N/A   Clear
6:36 PM 6.8 °F -0.1 °F -9.4 °F 48% 30.09 in 10.0 mi WSW 3.5 mph - N/A   Clear
6:55 PM 6.8 °F -3.5 °F -11.2 °F 44% 30.09 in 10.0 mi WSW 5.8 mph - N/A   Clear
7:15 PM 6.8 °F -2.0 °F -9.4 °F 48% 30.09 in 10.0 mi SW 4.6 mph - N/A   Clear
7:35 PM 6.8 °F -2.0 °F -9.4 °F 48% 30.09 in 10.0 mi WSW 4.6 mph - N/A   Clear
7:55 PM 5.0 °F - -9.4 °F 52% 30.09 in 10.0 mi Calm Calm - N/A   Clear
8:15 PM 5.0 °F - -11.2 °F 47% 30.09 in 10.0 mi Calm Calm - N/A   Clear
8:35 PM 3.2 °F - -11.2 °F 51% 30.10 in 10.0 mi Calm Calm - N/A   Clear
8:55 PM 3.2 °F - -9.4 °F 56% 30.10 in 10.0 mi Calm Calm - N/A   Clear
9:15 PM 1.4 °F - -9.4 °F 61% 30.10 in 10.0 mi Calm Calm - N/A   Clear
9:35 PM 1.4 °F - -9.4 °F 61% 30.10 in 10.0 mi Calm Calm - N/A   Clear
9:55 PM -0.4 °F - -9.4 °F 66% 30.10 in 10.0 mi Calm Calm - N/A   Clear
10:15 PM -2.2 °F - -9.4 °F 71% 30.10 in 10.0 mi Calm Calm - N/A   Clear
10:35 PM -2.2 °F - -9.4 °F 71% 30.10 in 10.0 mi Calm Calm - N/A   Clear
10:55 PM -2.2 °F - -11.2 °F 66% 30.10 in 10.0 mi Calm Calm - N/A   Clear
11:15 PM -2.2 °F - -9.4 °F 71% 30.10 in 10.0 mi Calm Calm - N/A   Clear
11:35 PM -2.2 °F - -9.4 °F 71% 30.10 in 10.0 mi Calm Calm - N/A   Clear
11:55 PM -4.0 °F - -9.4 °F 78% 30.11 in 10.0 mi Calm Calm - N/A   Clear